Location: Unspecified
(41.9000°N, 12.4830°E)
Time: 17:58:41
(UTC+02:00)

ISS - Pass Details

Date: 14 September 2017
Orbit: 401 x 407 km, 51.6° (Epoch: 25 September)

Event Time Altitude Azimuth Distance (km) Brightness Sun altitude
Exits shadow 04:36:47 15° 356° (N) 1,209 -1.2 -24.2°
Maximum altitude 04:36:58 15° 360° (N) 1,207 -1.1 -24.2°
Drops below altitude 10° 04:38:59 10° 38° (NE) 1,474 -0.1 -23.9°
Sets 04:41:44 0° 62° (ENE) 2,335 1.5 -23.4°
